Wind_Speed
22 16 16 16 16 18 25 25 28 26 24 24 28 35 31 28 23 25 26 21 31 34 29 29 34 33 33 30 30 24 15 11 21 27 21 16 15 13 10 6 13 10 9 7
21 11 23 21 21 21 17 21 26 29 24 22 26 31 25 24 31 24 28 25 27 32 32 36 37 35 34 32 30 28 24 21 16 23 21 19 19 16 16 13 16 13 11 9
17 13 23 25 15 15 20 24 23 26 26 25 26 36 32 29 27 31 25 27 25 25 31 38 39 38 35 34 31 32 24 32 20 23 24 22 22 23 26 14 20 14 14 11
19 23 19 23 19 21 28 21 24 28 26 18 16 20 34 26 21 28 28 26 24 24 33 35 36 44 34 28 32 35 32 33 23 23 25 19 18 17 14 12 12 17 17 14
26 17 18 21 22 20 27 25 28 33 26 23 22 12 23 18 17 15 27 27 25 22 23 33 34 27 28 33 40 32 37 37 33 23 25 20 17 15 12 14 16 18 17 17
15 14 13 18 25 26 27 26 36 10 6 3 12 10 5 9 8 13 18 27 25 19 21 24 24 27 31 25 26 32 33 36 33 30 32 23 25 16 13 15 17 20 17 19
21 16 18 20 29 29 27 31 7 5 5 3 10 8 6 11 12 13 19 23 26 22 25 25 27 26 23 27 26 29 30 34 34 36 38 23 19 23 11 18 21 21 15 17
17 11 18 20 23 24 20 23 7 3 5 5 14 7 7 7 10 12 9 14 19 24 25 27 22 21 24 26 25 24 29 26 26 23 18 13 23 24 20 19 20 17 15 20
11 14 16 15 17 24 21 20 15 3 5 5 14 17 31 18 10 4 12 15 16 25 22 22 19 19 19 20 21 22 21 20 24 18 16 16 20 18 16 18 16 12 19 18
13 16 11 11 10 25 20 18 11 7 5 5 10 12 14 16 21 3 7 8 19 24 22 22 18 16 16 18 17 18 19 18 18 18 17 16 15 13 9 11 13 15 21 24
21 11 20 11 8 13 20 18 11 9 5 3 4 6 16 21 16 12 7 4 14 13 10 12 15 19 20 21 22 21 24 19 15 15 13 10 7 6 10 12 14 20 23 26
19 9 22 11 1 8 14 17 14 8 8 2 1 6 14 19 16 14 6 8 10 8 6 5 8 9 11 13 14 14 15 14 13 12 9 7 8 9 14 14 20 21 26 27
21 8 14 9 3 7 17 16 14 11 5 9 4 4 14 13 17 13 10 12 14 12 8 6 6 7 6 6 7 8 8 7 5 3 3 6 10 12 16 21 22 24 26 29
14 9 9 9 17 17 15 13 11 7 4 8 6 4 9 12 14 12 10 11 10 8 8 7 6 5 4 3 3 1 1 1 5 3 8 11 13 17 21 24 26 29 31 34
12 12 13 15 6 8 10 9 8 6 5 3 3 5 8 8 11 8 9 9 9 8 8 8 7 6 5 4 2 2 4 6 6 9 13 16 19 22 25 28 31 33 35 36
17 11 18 10 2 11 9 4 7 3 4 4 3 4 6 8 8 8 8 7 8 8 7 7 6 4 2 1 2 4 6 9 12 15 18 21 24 27 30 32 33 35 36 36
15 8 10 3 9 1 3 5 4 6 5 2 3 4 6 6 5 5 5 5 5 5 5 4 4 2 3 5 7 9 12 14 17 20 23 26 28 30 33 34 35 36 36 35
9 6 7 8 7 1 2 3 1 4 5 5 3 1 2 5 5 3 5 5 4 3 3 3 4 5 7 9 12 14 16 19 21 23 25 27 30 32 33 34 34 33 31 31
7 7 4 4 7 7 9 6 5 6 4 4 4 2 1 1 2 4 4 3 3 3 4 5 6 7 9 12 15 18 20 21 23 25 28 30 32 33 33 32 32 30 29 29
8 7 8 3 3 4 3 4 4 4 9 3 3 3 2 2 4 4 4 4 4 5 5 7 8 11 14 16 17 19 21 22 25 28 30 31 32 33 32 31 29 28 27 27
11 11 16 15 8 7 9 7 5 4 3 3 4 3 3 5 6 7 7 7 7 7 8 9 11 14 15 16 17 18 20 23 26 29 31 33 33 31 29 27 27 26 26 25
8 7 8 9 8 9 8 7 7 6 7 8 6 5 6 6 7 8 8 7 7 8 9 11 13 14 16 16 17 20 23 25 28 30 30 29 28 27 26 25 25 25 25 25
14 19 13 12 6 9 8 7 8 7 7 8 7 6 7 7 7 7 7 7 8 9 11 13 14 16 16 16 19 22 24 28 29 28 26 26 25 25 25 25 25 26 26 26
21 17 20 22 24 25 22 17 16 15 14 13 12 10 9 9 8 8 8 8 8 10 13 14 16 16 16 18 21 23 26 27 27 25 24 25 25 25 25 25 26 26 27 29
33 30 31 34 34 28 26 24 24 22 17 15 13 13 12 10 9 9 9 9 10 12 14 15 15 15 16 19 22 24 26 26 24 23 24 25 25 25 25 26 27 28 29 31
38 34 34 38 35 32 28 24 23 23 23 22 20 18 15 13 11 10 10 11 12 13 14 15 14 15 17 20 23 24 24 22 21 22 24 24 24 25 26 25 26 27 28 28
Wind_Direction
353 2 348 319 324 311 304 305 301 300 306 298 284 278 279 269 245 241 230 226 227 231 225 232 233 228 230 230 227 223 204 213 271 263 256 235 243 245 225 245 256 248 264 281
354 346 348 332 307 311 309 303 304 304 304 294 282 280 277 270 245 239 233 238 221 223 220 226 228 228 230 233 233 222 223 263 267 256 237 236 245 249 239 240 242 246 250 265
342 334 342 348 343 331 318 313 315 309 309 288 290 284 280 277 258 235 231 239 226 214 222 223 231 228 232 228 230 231 246 248 267 248 234 234 242 246 239 251 233 241 248 260
350 351 349 347 342 340 326 327 315 310 304 292 293 288 291 287 274 233 231 227 220 219 230 227 236 227 220 225 229 233 246 242 249 250 236 242 255 250 252 231 222 230 248 259
352 7 4 10 4 347 325 314 302 310 286 282 289 264 285 287 295 250 225 221 225 231 233 226 235 238 233 239 213 235 239 245 241 248 236 245 248 234 242 236 235 232 242 260
1 15 11 356 359 350 336 318 317 333 323 273 352 259 339 23 331 261 225 221 220 216 226 222 225 232 246 233 218 234 240 245 230 237 235 239 222 277 247 239 246 240 237 256
10 18 11 359 346 356 337 341 323 12 31 299 287 325 280 315 304 312 221 220 219 206 215 223 236 233 225 229 229 236 229 262 248 239 228 241 255 283 250 252 250 241 249 262
345 347 6 6 358 339 343 353 26 320 335 300 355 328 354 19 349 312 257 236 223 210 210 222 236 233 227 224 234 232 234 248 251 241 241 274 275 280 254 243 248 242 259 262
340 322 11 17 21 16 352 351 353 313 293 306 18 28 30 25 359 325 259 237 228 208 206 220 217 220 215 218 227 237 247 241 244 266 280 273 274 260 244 251 247 257 262 264
337 307 351 14 17 14 9 6 356 5 352 350 342 34 10 20 22 127 336 193 210 212 211 215 206 211 217 235 239 248 248 250 266 271 268 268 255 251 252 244 270 277 273 257
349 316 331 357 8 354 5 6 360 354 35 340 316 14 16 5 10 20 83 161 207 187 198 201 208 227 232 233 231 244 266 274 273 277 277 279 278 265 272 276 278 269 271 276
336 309 318 331 116 3 31 18 5 29 347 17 341 351 1 9 29 43 84 114 115 134 217 182 197 212 216 226 234 240 254 263 268 272 275 287 282 271 287 277 274 268 278 280
325 323 329 355 10 352 20 25 357 343 341 1 5 3 359 17 30 60 71 97 123 145 148 140 141 151 166 186 208 223 232 254 266 282 295 270 284 280 276 274 269 273 271 272
315 306 320 276 304 318 324 349 353 323 330 336 355 7 12 28 28 46 63 89 92 91 97 102 112 124 137 167 186 168 355 95 272 245 263 281 275 271 267 273 276 277 277 279
308 301 313 313 359 345 330 349 345 3 344 350 28 24 25 46 40 64 82 82 85 85 89 95 98 100 99 92 66 14 338 329 316 288 285 283 283 284 285 284 284 284 285 287
304 291 307 319 257 311 299 320 335 332 350 313 311 329 23 16 29 53 72 84 101 110 113 112 108 101 82 23 335 320 313 305 299 297 294 291 290 289 289 289 288 288 288 288
291 273 310 269 322 287 140 334 350 359 3 309 259 306 331 336 4 32 52 68 56 54 62 71 70 43 351 327 319 314 306 300 297 294 293 292 291 289 287 288 288 288 288 289
257 261 282 292 341 164 199 338 319 318 9 26 30 3 318 310 333 27 56 64 50 32 13 358 343 326 314 307 302 298 296 296 296 294 292 291 291 290 291 292 292 292 291 289
232 233 264 281 307 282 251 247 287 276 298 10 24 12 346 341 39 58 51 48 33 354 338 328 318 311 306 303 301 302 303 301 299 300 299 298 300 301 300 298 296 293 291 289
228 232 231 251 276 236 197 230 285 270 264 269 2 358 320 306 330 318 323 336 338 335 329 320 313 309 307 307 308 307 305 305 305 305 306 307 307 306 304 301 298 293 291 290
210 229 237 245 247 261 239 249 262 233 274 296 324 337 310 290 297 301 307 314 318 318 315 310 308 309 309 308 307 305 306 307 308 309 311 312 311 310 307 302 299 298 297 295
222 225 232 224 225 250 223 234 241 277 290 295 292 297 307 305 300 295 295 300 303 304 303 303 306 307 305 306 308 310 310 311 311 313 313 313 313 310 305 303 303 302 299 298
239 240 242 233 231 228 215 236 249 262 279 293 286 286 303 305 296 292 290 294 299 301 298 302 305 305 308 313 314 312 314 315 315 316 317 317 315 312 310 308 306 304 303 301
236 233 245 252 255 248 255 261 265 269 271 270 275 283 292 302 299 294 294 296 298 300 303 305 304 308 314 315 313 315 317 317 316 316 318 318 317 316 314 312 309 308 307 304
258 250 250 254 258 256 263 266 266 260 255 256 257 269 279 292 294 290 292 296 299 300 304 304 304 310 313 312 313 317 320 318 318 319 320 319 318 317 314 311 309 308 308 307
270 269 254 259 264 259 259 262 258 256 252 250 252 255 267 275 289 286 286 292 297 301 301 302 305 306 312 315 316 322 319 319 320 319 319 320 319 317 314 312 309 309 311 312
Height
3115 3114 3111 3108 3106 3104 3100 3097 3092 3091 3091 3087 3083 3079 3082 3085 3087 3087 3088 3091 3095 3099 3106 3109 3111 3115 3119 3121 3126 3128 3133 3135 3138 3138 3140 3140 3143 3145 3147 3147 3146 3148 3149 3151
3116 3111 3109 3106 3104 3101 3097 3093 3089 3085 3086 3082 3077 3070 3075 3077 3080 3081 3083 3085 3086 3093 3098 3100 3104 3110 3115 3119 3122 3127 3129 3130 3129 3134 3135 3137 3139 3140 3141 3143 3144 3145 3147 3148
3112 3110 3106 3104 3102 3098 3094 3090 3084 3080 3077 3076 3073 3064 3067 3070 3071 3074 3077 3079 3082 3086 3090 3093 3098 3105 3111 3114 3118 3121 3125 3126 3126 3130 3132 3132 3133 3134 3136 3138 3138 3142 3144 3145
3112 3109 3106 3103 3100 3097 3090 3085 3080 3075 3073 3069 3070 3060 3059 3062 3063 3066 3069 3073 3076 3081 3084 3089 3093 3096 3105 3114 3117 3118 3117 3119 3122 3126 3127 3129 3130 3131 3131 3133 3134 3138 3141 3142
3115 3109 3105 3102 3099 3095 3088 3081 3075 3070 3067 3065 3063 3064 3053 3058 3058 3059 3063 3068 3072 3075 3080 3086 3089 3093 3102 3101 3093 3113 3113 3116 3119 3121 3124 3125 3127 3126 3125 3128 3130 3131 3136 3138
3113 3109 3106 3103 3098 3094 3086 3077 3070 3064 3065 3065 3061 3061 3055 3054 3054 3054 3058 3063 3069 3071 3077 3082 3088 3093 3099 3101 3106 3106 3110 3111 3113 3115 3119 3121 3120 3119 3120 3124 3125 3128 3131 3134
3111 3109 3106 3103 3096 3091 3086 3078 3069 3066 3066 3066 3059 3059 3056 3055 3054 3054 3056 3060 3065 3070 3074 3080 3085 3092 3096 3099 3101 3103 3107 3106 3108 3110 3107 3112 3107 3115 3117 3119 3121 3124 3127 3129
3113 3108 3106 3104 3100 3093 3087 3082 3081 3081 3074 3068 3060 3057 3058 3057 3054 3053 3055 3058 3063 3067 3073 3078 3082 3087 3090 3093 3094 3098 3100 3102 3102 3098 3096 3104 3107 3111 3114 3115 3117 3119 3122 3123
3116 3108 3106 3104 3101 3097 3090 3086 3083 3079 3076 3074 3067 3064 3062 3060 3057 3056 3056 3059 3061 3068 3072 3076 3080 3083 3087 3090 3092 3095 3099 3099 3101 3101 3098 3100 3106 3109 3111 3111 3113 3115 3117 3118
3119 3110 3105 3103 3102 3098 3094 3090 3084 3082 3080 3081 3071 3068 3068 3063 3058 3056 3059 3060 3062 3067 3072 3075 3079 3083 3087 3090 3091 3092 3095 3096 3098 3098 3100 3101 3104 3106 3106 3108 3109 3111 3112 3111
3118 3115 3106 3102 3101 3099 3095 3092 3088 3085 3085 3083 3080 3075 3072 3068 3064 3063 3059 3060 3065 3069 3073 3076 3078 3081 3083 3085 3088 3089 3090 3092 3094 3096 3096 3098 3100 3101 3103 3104 3106 3106 3105 3104
3117 3113 3106 3101 3101 3100 3098 3094 3092 3090 3087 3083 3083 3081 3077 3073 3069 3066 3067 3067 3065 3067 3073 3076 3077 3079 3082 3084 3087 3089 3091 3092 3092 3093 3093 3096 3098 3099 3100 3100 3100 3100 3099 3098
3116 3113 3108 3101 3102 3100 3097 3095 3094 3091 3089 3086 3084 3084 3079 3077 3074 3072 3070 3072 3074 3075 3076 3077 3079 3080 3082 3084 3086 3088 3089 3090 3091 3092 3093 3095 3096 3097 3097 3097 3096 3095 3094 3093
3113 3112 3111 3110 3104 3101 3096 3095 3093 3091 3089 3088 3086 3085 3082 3080 3077 3076 3075 3075 3075 3076 3077 3079 3080 3081 3083 3084 3085 3087 3088 3089 3090 3092 3093 3094 3094 3095 3093 3092 3091 3089 3087 3085
3112 3108 3107 3104 3102 3100 3097 3094 3094 3091 3089 3088 3087 3085 3084 3082 3080 3079 3079 3079 3078 3079 3080 3081 3083 3083 3084 3084 3085 3086 3088 3089 3090 3091 3091 3090 3089 3088 3086 3085 3082 3080 3077 3074
3110 3107 3104 3100 3100 3099 3096 3095 3093 3092 3090 3088 3086 3086 3084 3084 3083 3081 3080 3080 3082 3083 3084 3085 3085 3086 3086 3086 3087 3088 3089 3089 3089 3088 3086 3085 3083 3081 3079 3076 3073 3070 3067 3063
3105 3105 3103 3098 3098 3095 3096 3094 3092 3091 3089 3088 3086 3085 3084 3084 3084 3084 3083 3082 3082 3083 3084 3085 3086 3086 3086 3086 3086 3086 3086 3086 3084 3083 3082 3080 3078 3075 3071 3068 3064 3061 3057 3053
3102 3103 3102 3098 3096 3097 3095 3093 3092 3091 3089 3087 3086 3085 3084 3084 3084 3084 3084 3083 3083 3083 3084 3084 3085 3085 3085 3085 3085 3084 3083 3082 3081 3078 3076 3074 3071 3067 3064 3060 3055 3051 3047 3044
3100 3100 3101 3100 3097 3096 3093 3092 3092 3091 3091 3088 3087 3086 3085 3084 3085 3085 3084 3084 3084 3084 3084 3084 3084 3084 3084 3083 3082 3080 3078 3077 3074 3072 3069 3065 3062 3058 3054 3050 3046 3042 3038 3035
3099 3099 3100 3098 3098 3094 3091 3091 3090 3089 3088 3088 3086 3086 3085 3085 3085 3085 3085 3084 3084 3084 3083 3083 3082 3082 3081 3079 3078 3076 3073 3070 3068 3065 3061 3057 3053 3049 3045 3041 3037 3033 3030 3027
3095 3096 3095 3096 3094 3089 3088 3089 3089 3090 3092 3087 3086 3085 3085 3085 3085 3084 3083 3083 3082 3082 3081 3081 3080 3079 3077 3075 3074 3071 3069 3066 3063 3059 3055 3050 3045 3041 3037 3033 3029 3026 3023 3020
3091 3091 3090 3090 3091 3087 3085 3086 3089 3088 3086 3086 3085 3084 3083 3083 3083 3082 3082 3081 3081 3080 3080 3078 3077 3076 3074 3072 3070 3067 3064 3061 3057 3053 3049 3044 3039 3035 3031 3027 3023 3019 3016 3013
3088 3087 3087 3087 3083 3082 3082 3082 3083 3083 3083 3084 3084 3083 3082 3081 3080 3080 3079 3079 3079 3078 3077 3076 3075 3073 3071 3068 3066 3063 3059 3055 3051 3047 3042 3038 3034 3029 3025 3021 3017 3013 3009 3006
3081 3081 3079 3080 3078 3079 3078 3078 3079 3079 3079 3079 3080 3081 3080 3079 3078 3077 3076 3076 3076 3075 3074 3073 3071 3069 3067 3064 3061 3057 3053 3050 3045 3041 3037 3032 3028 3023 3019 3014 3010 3006 3003 2999
3072 3074 3072 3070 3070 3074 3074 3073 3074 3074 3074 3074 3075 3077 3077 3076 3075 3074 3074 3073 3073 3072 3071 3070 3068 3065 3063 3060 3056 3053 3049 3044 3040 3035 3032 3027 3023 3019 3014 3009 3005 3000 2996 2992
3057 3059 3061 3056 3061 3065 3067 3067 3066 3066 3067 3068 3069 3071 3073 3073 3072 3071 3071 3070 3070 3069 3067 3066 3065 3062 3059 3056 3052 3048 3044 3040 3036 3032 3028 3023 3019 3014 3009 3004 3000 2994 2990 2985